When you browse on this site, cookies collect data to enhance your experience and personalize the content and advertising you see.
Visit our Privacy Policy to learn more. By continuing to use the site, you agree to this use of cookies and data.
  • In Slovakia
  • List of Countries
  • For 7 days
  • Water Temperature
  • Satellite Maps
  • Weather Map
  • Weather Widgets
  • user-avatar
    Login

    Hourly Weather Ondjiwa

    Today, 18 January, Friday

    Time Temperature Precipitation Wind Pressure Humidity
    00:00 +26°C° 1.4 mm 2 mps 665 mmHg 60%
    01:00 +24°C° 0 mm 2 mps 665 mmHg 63%
    02:00 +24°C° 0.1 mm 2 mps 665 mmHg 63%
    03:00 +24°C° 0.1 mm 2 mps 665 mmHg 62%
    04:00 +23°C° 0.1 mm 1 mps 665 mmHg 61%
    05:00 +24°C° 0 mm 2 mps 666 mmHg 63%
    06:00 +24°C° 0 mm 2 mps 666 mmHg 65%
    07:00 +25°C° 0 mm 2 mps 667 mmHg 66%
    08:00 +27°C° 0 mm 2 mps 667 mmHg 59%
    09:00 +29°C° 0 mm 2 mps 667 mmHg 53%
    10:00 +31°C° 0 mm 3 mps 668 mmHg 46%
    11:00 +32°C° 0 mm 2 mps 667 mmHg 43%
    12:00 +34°C° 0 mm 2 mps 667 mmHg 40%
    13:00 +34°C° 0 mm 2 mps 666 mmHg 36%
    14:00 +35°C° 0 mm 2 mps 666 mmHg 35%
    15:00 +35°C° 0 mm 2 mps 666 mmHg 34%
    16:00 +35°C° 0 mm 3 mps 665 mmHg 33%
    17:00 +34°C° 0 mm 2 mps 665 mmHg 37%
    18:00 +32°C° 0 mm 2 mps 665 mmHg 40%
    19:00 +30°C° 0 mm 1 mps 665 mmHg 43%
    20:00 +30°C° 0 mm 1 mps 665 mmHg 44%
    21:00 +29°C° 0 mm 1 mps 666 mmHg 46%
    22:00 +29°C° 0 mm 1 mps 666 mmHg 47%
    23:00 +28°C° 0 mm 2 mps 666 mmHg 47%

    Tomorrow, 19 January, Saturday

    Time Temperature Precipitation Wind Pressure Humidity
    00:00 +28°C° 0 mm 2 mps 666 mmHg 48%
    01:00 +27°C° 0 mm 3 mps 666 mmHg 49%
    02:00 +26°C° 0 mm 2 mps 665 mmHg 49%
    03:00 +25°C° 0 mm 2 mps 665 mmHg 50%
    04:00 +25°C° 0 mm 2 mps 665 mmHg 51%
    05:00 +25°C° 0 mm 2 mps 666 mmHg 52%
    06:00 +25°C° 0 mm 3 mps 666 mmHg 53%
    07:00 +25°C° 0 mm 4 mps 666 mmHg 53%
    08:00 +27°C° 0 mm 3 mps 667 mmHg 48%
    09:00 +29°C° 0 mm 3 mps 668 mmHg 42%
    10:00 +31°C° 0 mm 3 mps 668 mmHg 36%
    11:00 +34°C° 0 mm 3 mps 668 mmHg 33%
    12:00 +36°C° 0 mm 2 mps 668 mmHg 30%
    13:00 +37°C° 0 mm 2 mps 668 mmHg 27%
    14:00 +37°C° 0 mm 2 mps 667 mmHg 28%
    15:00 +36°C° 0 mm 3 mps 666 mmHg 29%
    16:00 +36°C° 0 mm 3 mps 665 mmHg 30%
    17:00 +33°C° 0.8 mm 4 mps 665 mmHg 38%
    18:00 +29°C° 0.8 mm 5 mps 665 mmHg 46%
    19:00 +27°C° 0.8 mm 7 mps 665 mmHg 54%
    20:00 +26°C° 0.5 mm 5 mps 666 mmHg 57%
    21:00 +26°C° 0.5 mm 4 mps 666 mmHg 60%
    22:00 +25°C° 0.5 mm 2 mps 667 mmHg 63%
    23:00 +25°C° 0.9 mm 2 mps 667 mmHg 68%

    Day after tomorrow, 20 January, Sunday

    Time Temperature Precipitation Wind Pressure Humidity
    00:00 +24°C° 0.9 mm 2 mps 667 mmHg 73%
    01:00 +23°C° 0.9 mm 2 mps 667 mmHg 79%
    02:00 +22°C° 0.3 mm 3 mps 666 mmHg 79%
    03:00 +22°C° 0.3 mm 3 mps 666 mmHg 79%
    04:00 +22°C° 0.3 mm 3 mps 666 mmHg 79%
    05:00 +22°C° 0 mm 3 mps 667 mmHg 78%
    06:00 +23°C° 0 mm 2 mps 667 mmHg 77%
    07:00 +24°C° 0 mm 1 mps 668 mmHg 76%
    08:00 +25°C° 0 mm 1 mps 668 mmHg 69%
    09:00 +27°C° 0 mm 2 mps 668 mmHg 62%
    10:00 +28°C° 0 mm 2 mps 669 mmHg 55%
    11:00 +29°C° 0 mm 2 mps 669 mmHg 51%
    12:00 +30°C° 0 mm 3 mps 668 mmHg 47%
    13:00 +31°C° 0 mm 3 mps 668 mmHg 42%
    14:00 +31°C° 0 mm 3 mps 667 mmHg 43%
    15:00 +30°C° 0 mm 2 mps 667 mmHg 45%
    16:00 +30°C° 0 mm 2 mps 666 mmHg 46%
    17:00 +29°C° 0 mm 2 mps 666 mmHg 49%
    18:00 +29°C° 0 mm 1 mps 666 mmHg 52%
    19:00 +26°C° 0 mm 0 mps 666 mmHg 55%
    20:00 +27°C° 0.1 mm 1 mps 667 mmHg 57%
    21:00 +27°C° 0.1 mm 1 mps 667 mmHg 59%
    22:00 +27°C° 0.1 mm 1 mps 668 mmHg 61%
    23:00 +26°C° 0 mm 1 mps 667 mmHg 62%

    21 January, Monday

    Time Temperature Precipitation Wind Pressure Humidity
    00:00 +26°C° 0 mm 1 mps 667 mmHg 63%
    01:00 +26°C° 0 mm 1 mps 667 mmHg 64%
    02:00 +25°C° 0.5 mm 1 mps 667 mmHg 68%
    03:00 +24°C° 0.5 mm 1 mps 667 mmHg 71%
    04:00 +24°C° 0.5 mm 1 mps 667 mmHg 75%
    05:00 +24°C° 0.7 mm 1 mps 667 mmHg 75%
    06:00 +24°C° 0.7 mm 1 mps 668 mmHg 75%
    07:00 +22°C° 0.7 mm 0 mps 668 mmHg 76%
    08:00 +26°C° 0.4 mm 1 mps 669 mmHg 67%
    09:00 +28°C° 0.4 mm 2 mps 670 mmHg 57%
    10:00 +30°C° 0.4 mm 2 mps 670 mmHg 48%
    11:00 +31°C° 0 mm 2 mps 669 mmHg 46%
    12:00 +33°C° 0 mm 3 mps 669 mmHg 43%
    13:00 +33°C° 0 mm 3 mps 668 mmHg 40%
    14:00 +34°C° 0 mm 3 mps 668 mmHg 39%
    15:00 +34°C° 0 mm 3 mps 667 mmHg 38%
    16:00 +34°C° 0 mm 3 mps 667 mmHg 37%
    17:00 +33°C° 0 mm 3 mps 667 mmHg 41%
    18:00 +31°C° 0 mm 2 mps 667 mmHg 44%
    19:00 +29°C° 0 mm 2 mps 666 mmHg 47%
    20:00 +29°C° 0 mm 2 mps 667 mmHg 49%
    21:00 +28°C° 0 mm 2 mps 667 mmHg 51%
    22:00 +27°C° 0 mm 2 mps 667 mmHg 53%
    23:00 +27°C° 0 mm 2 mps 667 mmHg 54%

    22 January, Tuesday

    Time Temperature Precipitation Wind Pressure Humidity
    00:00 +26°C° 0 mm 2 mps 667 mmHg 56%
    01:00 +26°C° 0 mm 2 mps 666 mmHg 57%
    02:00 +25°C° 0 mm 2 mps 666 mmHg 58%
    03:00 +25°C° 0 mm 2 mps 666 mmHg 59%
    04:00 +24°C° 0 mm 2 mps 666 mmHg 61%
    05:00 +24°C° 0 mm 1 mps 667 mmHg 60%
    06:00 +25°C° 0 mm 1 mps 667 mmHg 60%
    07:00 +25°C° 0 mm 1 mps 668 mmHg 59%
    08:00 +27°C° 0 mm 2 mps 668 mmHg 54%
    09:00 +29°C° 0 mm 2 mps 669 mmHg 50%
    10:00 +31°C° 0 mm 3 mps 669 mmHg 45%
    11:00 +31°C° 0 mm 3 mps 669 mmHg 42%
    12:00 +32°C° 0 mm 2 mps 668 mmHg 39%
    13:00 +32°C° 0 mm 2 mps 667 mmHg 36%
    14:00 +32°C° 0 mm 2 mps 667 mmHg 35%
    15:00 +33°C° 0 mm 1 mps 666 mmHg 34%
    16:00 +33°C° 0 mm 1 mps 666 mmHg 33%
    17:00 +32°C° 0 mm 1 mps 666 mmHg 35%
    18:00 +30°C° 0 mm 1 mps 666 mmHg 37%
    19:00 +29°C° 0 mm 2 mps 666 mmHg 39%
    20:00 +28°C° 0 mm 2 mps 666 mmHg 42%
    21:00 +28°C° 0 mm 2 mps 666 mmHg 45%
    22:00 +27°C° 0 mm 2 mps 667 mmHg 48%
    23:00 +26°C° 0 mm 2 mps 667 mmHg 50%

    23 January, Wednesday

    Time Temperature Precipitation Wind Pressure Humidity
    00:00 +26°C° 0 mm 2 mps 667 mmHg 53%
    01:00 +26°C° 0 mm 3 mps 667 mmHg 55%
    02:00 +25°C° 0 mm 3 mps 666 mmHg 56%
    03:00 +25°C° 0 mm 2 mps 666 mmHg 57%
    04:00 +24°C° 0 mm 2 mps 666 mmHg 58%
    05:00 +25°C° 0 mm 3 mps 666 mmHg 55%
    06:00 +25°C° 0 mm 3 mps 667 mmHg 52%
    07:00 +26°C° 0 mm 3 mps 667 mmHg 49%
    08:00 +28°C° 0 mm 3 mps 668 mmHg 43%
    09:00 +30°C° 0 mm 3 mps 668 mmHg 37%
    10:00 +33°C° 0 mm 3 mps 668 mmHg 31%
    11:00 +35°C° 0 mm 3 mps 668 mmHg 26%
    12:00 +36°C° 0 mm 3 mps 667 mmHg 21%
    13:00 +38°C° 0 mm 3 mps 667 mmHg 17%
    14:00 +38°C° 0 mm 3 mps 666 mmHg 16%
    15:00 +38°C° 0 mm 3 mps 666 mmHg 16%
    16:00 +39°C° 0 mm 3 mps 665 mmHg 15%
    17:00 +37°C° 0 mm 2 mps 665 mmHg 19%
    18:00 +35°C° 0 mm 2 mps 665 mmHg 23%
    19:00 +31°C° 0 mm 2 mps 665 mmHg 26%
    20:00 +30°C° 0 mm 2 mps 665 mmHg 29%
    21:00 +29°C° 0 mm 2 mps 665 mmHg 32%
    22:00 +28°C° 0 mm 2 mps 665 mmHg 34%
    23:00 +27°C° 0 mm 3 mps 665 mmHg 39%
    Show more